Retour au catalogue

CZ-4 DEB

ActifSSO
NORAD 26154·DEBRIS·🇨🇳 China

Lancé Oct 14, 1999 depuis Taiyuan Satellite Launch Center

Loading…

Prochains Passages (prochaines 24 heures)

TLE

FraisSource: Space-Track

Époque: Sep 11, 2026, 17:48 UTC

1 26154U 99057AQ  26254.74191128  .00000603  00000-0  53812-3 0  9991
2 26154  99.5421 173.7954 0517031 294.5351  60.2724 13.40434360290226

Suivez CZ-4 DEB en temps réel avec AllMySat

Download on the App Store